| time (UTC) | temp F | wind direction | speed knots | gust knots | rain 1hr in | rain 24hr in | rain mn in | humidity % | barometer mb |
| 20260507014556 | 58 | 66 | 0.0 | 0.0 | 0.00 | 0.00 | 0.00 | 26 | 1011.1 |
| 20260507013103 | 59 | 117 | 0.0 | 0.0 | 0.00 | 0.00 | 0.00 | 26 | 1010.7 |
| 20260507011543 | 61 | 28 | 0.0 | 0.0 | 0.00 | 0.00 | 0.00 | 25 | 1010.3 |
| 20260507010042 | 63 | 110 | 1.7 | 0.0 | 0.00 | 0.00 | 0.00 | 22 | 1010.0 |
| 20260507004541 | 64 | 37 | 0.9 | 0.0 | 0.00 | 0.00 | 0.00 | 20 | 1010.0 |
| 20260507003041 | 63 | 59 | 0.9 | 0.0 | 0.00 | 0.00 | 0.00 | 20 | 1010.1 |
| 20260507001554 | 63 | 30 | 0.9 | 0.0 | 0.00 | 0.00 | 0.00 | 19 | 1010.0 |
| 20260507000038 | 64 | 69 | 0.9 | 0.0 | 0.00 | 0.00 | 0.00 | 21 | 1009.8 |
| 20260506234535 | 64 | 318 | 1.7 | 0.0 | 0.00 | 0.00 | 0.00 | 25 | 1009.7 |
| 20260506233032 | 63 | 44 | 0.9 | 0.0 | 0.00 | 0.00 | 0.00 | 28 | 1009.6 |
| 20260506231528 | 62 | 17 | 1.7 | 0.0 | 0.00 | 0.00 | 0.00 | 27 | 1009.7 |
| 20260506230025 | 62 | 37 | 0.9 | 0.0 | 0.00 | 0.00 | 0.00 | 27 | 1010.2 |
| 20260506224522 | 61 | 58 | 1.7 | 0.0 | 0.00 | 0.00 | 0.00 | 28 | 1010.3 |
| 20260506223019 | 61 | 21 | 0.9 | 0.0 | 0.00 | 0.00 | 0.00 | 28 | 1010.3 |
| 20260506221516 | 61 | 45 | 0.9 | 0.0 | 0.00 | 0.00 | 0.00 | 28 | 1010.5 |
| 20260506220015 | 61 | 51 | 0.9 | 0.0 | 0.00 | 0.00 | 0.00 | 28 | 1010.7 |
| 20260506214514 | 60 | 47 | 1.7 | 0.0 | 0.00 | 0.00 | 0.00 | 29 | 1010.9 |
| 20260506213015 | 60 | 44 | 1.7 | 0.0 | 0.00 | 0.00 | 0.00 | 28 | 1010.9 |
| 20260506211511 | 60 | 7 | 2.6 | 0.0 | 0.00 | 0.00 | 0.00 | 28 | 1010.8 |
| 20260506210014 | 61 | 20 | 0.9 | 0.0 | 0.00 | 0.00 | 0.00 | 29 | 1010.7 |
| 20260506204508 | 60 | 38 | 0.9 | 0.0 | 0.00 | 0.00 | 0.00 | 31 | 1011.2 |
| 20260506203006 | 59 | 25 | 0.9 | 0.0 | 0.00 | 0.00 | 0.00 | 34 | 1011.0 |
| 20260506201504 | 58 | 83 | 1.7 | 0.0 | 0.00 | 0.00 | 0.00 | 32 | 1011.2 |
| 20260506200003 | 58 | 13 | 1.7 | 0.0 | 0.00 | 0.00 | 0.00 | 34 | 1011.3 |
| 20260506194502 | 58 | 37 | 0.9 | 0.0 | 0.00 | 0.00 | 0.00 | 34 | 1011.8 |
| 20260506193100 | 58 | 18 | 0.9 | 0.0 | 0.00 | 0.00 | 0.00 | 34 | 1011.8 |
| 20260506191557 | 57 | 34 | 0.9 | 0.0 | 0.00 | 0.00 | 0.00 | 35 | 1011.8 |
| 20260506190056 | 56 | 59 | 0.0 | 0.0 | 0.00 | 0.00 | 0.00 | 37 | 1011.8 |
| 20260506184555 | 55 | 23 | 0.0 | 0.0 | 0.00 | 0.00 | 0.00 | 40 | 1012.2 |
| 20260506183053 | 54 | 278 | 0.0 | 0.0 | 0.00 | 0.00 | 0.00 | 40 | 1012.9 |
| 20260506181546 | 52 | 274 | 0.0 | 0.0 | 0.00 | 0.00 | 0.00 | 44 | 1013.3 |
| 20260506180049 | 51 | 44 | 0.0 | 0.0 | 0.00 | 0.00 | 0.00 | 48 | 1013.0 |
| 20260506174542 | 50 | 325 | 0.0 | 0.0 | 0.00 | 0.00 | 0.00 | 50 | 1012.9 |
| 20260506173041 | 50 | 329 | 0.0 | 0.0 | 0.00 | 0.00 | 0.00 | 51 | 1012.7 |
| 20260506171549 | 49 | 34 | 0.0 | 0.0 | 0.00 | 0.00 | 0.00 | 52 | 1013.1 |
| 20260506170037 | 48 | 340 | 0.0 | 0.0 | 0.00 | 0.00 | 0.00 | 51 | 1011.7 |
| 20260506164538 | 48 | 292 | 0.0 | 0.0 | 0.00 | 0.00 | 0.00 | 49 | 1011.5 |
| 20260506163045 | 48 | 359 | 0.0 | 0.0 | 0.00 | 0.00 | 0.00 | 48 | 1011.5 |
| 20260506161544 | 48 | 13 | 0.0 | 0.0 | 0.00 | 0.00 | 0.00 | 47 | 1011.9 |
| 20260506160030 | 47 | 47 | 0.0 | 0.0 | 0.00 | 0.00 | 0.00 | 44 | 1011.2 |
| 20260506154526 | 46 | 31 | 0.0 | 0.0 | 0.00 | 0.00 | 0.00 | 43 | 1011.7 |
| 20260506153024 | 45 | 37 | 0.0 | 0.0 | 0.00 | 0.00 | 0.00 | 42 | 1011.8 |
| 20260506151521 | 44 | 54 | 0.0 | 0.0 | 0.00 | 0.00 | 0.00 | 45 | 1011.7 |
| 20260506150023 | 42 | 0 | 0.0 | 0.0 | 0.00 | 0.00 | 0.00 | 49 | 1012.1 |
| 20260506144513 | 38 | 0 | 0.0 | 0.0 | 0.00 | 0.00 | 0.00 | 60 | 1013.0 |
| 20260506143010 | 35 | 0 | 0.0 | 0.0 | 0.00 | 0.00 | 0.00 | 70 | 1013.7 |
| 20260506141505 | 34 | 0 | 0.0 | 0.0 | 0.00 | 0.00 | 0.00 | 73 | 1013.7 |
| 20260506140002 | 32 | 0 | 0.0 | 0.0 | 0.00 | 0.00 | 0.00 | 74 | 1013.4 |
| 20260506134620 | 32 | 0 | 0.0 | 0.0 | 0.00 | 0.00 | 0.00 | 75 | 1013.3 |
| 20260506133100 | 31 | 0 | 0.0 | 0.0 | 0.00 | 0.00 | 0.00 | 75 | 1012.9 |
| 20260506131610 | 31 | 0 | 0.0 | 0.0 | 0.00 | 0.00 | 0.00 | 77 | 1013.3 |
| 20260506130057 | 30 | 0 | 0.0 | 0.0 | 0.00 | 0.00 | 0.00 | 78 | 1012.7 |
| 20260506124556 | 30 | 0 | 0.0 | 0.0 | 0.00 | 0.00 | 0.00 | 80 | 1012.4 |
| 20260506123056 | 30 | 0 | 0.0 | 0.0 | 0.00 | 0.00 | 0.00 | 80 | 1012.2 |
| 20260506121604 | 30 | 0 | 0.0 | 0.0 | 0.00 | 0.00 | 0.00 | 80 | 1012.2 |
| 20260506120054 | 31 | 0 | 0.0 | 0.0 | 0.00 | 0.00 | 0.00 | 80 | 1012.6 |
| 20260506114555 | 30 | 0 | 0.0 | 0.0 | 0.00 | 0.00 | 0.00 | 80 | 1012.5 |
| 20260506113052 | 30 | 0 | 0.0 | 0.0 | 0.00 | 0.00 | 0.00 | 80 | 1012.4 |
| 20260506111610 | 30 | 0 | 0.0 | 0.0 | 0.00 | 0.00 | 0.00 | 80 | 1012.3 |
| 20260506110053 | 30 | 0 | 0.0 | 0.0 | 0.00 | 0.00 | 0.00 | 80 | 1012.2 |
| 20260506104550 | 30 | 0 | 0.0 | 0.0 | 0.00 | 0.00 | 0.00 | 80 | 1012.0 |
| 20260506103050 | 30 | 0 | 0.0 | 0.0 | 0.00 | 0.00 | 0.00 | 80 | 1012.0 |
| 20260506101549 | 30 | 0 | 0.0 | 0.0 | 0.00 | 0.00 | 0.00 | 80 | 1012.0 |
| 20260506100049 | 30 | 0 | 0.0 | 0.0 | 0.00 | 0.00 | 0.00 | 81 | 1011.9 |
| 20260506094548 | 30 | 0 | 0.0 | 0.0 | 0.00 | 0.00 | 0.00 | 82 | 1011.9 |
| 20260506093052 | 30 | 0 | 0.0 | 0.0 | 0.00 | 0.00 | 0.00 | 82 | 1011.9 |
| 20260506091546 | 30 | 0 | 0.0 | 0.0 | 0.00 | 0.00 | 0.00 | 83 | 1011.8 |
| 20260506090045 | 30 | 0 | 0.0 | 0.0 | 0.00 | 0.00 | 0.00 | 85 | 1011.9 |
| 20260506084545 | 30 | 0 | 0.0 | 0.0 | 0.00 | 0.00 | 0.00 | 85 | 1012.0 |
| 20260506083059 | 30 | 0 | 0.0 | 0.0 | 0.00 | 0.00 | 0.00 | 85 | 1012.0 |
| 20260506081548 | 30 | 0 | 0.0 | 0.0 | 0.00 | 0.00 | 0.00 | 85 | 1012.0 |
| 20260506073041 | 30 | 0 | 0.0 | 0.0 | 0.00 | 0.00 | 0.11 | 84 | 1013.6 |
| 20260506071540 | 31 | 0 | 0.0 | 0.0 | 0.00 | 0.00 | 0.11 | 84 | 1013.6 |
| 20260506061540 | 32 | 0 | 0.0 | 0.0 | 0.00 | 0.00 | 0.11 | 82 | 1012.9 |
| 20260506044535 | 37 | 0 | 0.0 | 0.0 | 0.00 | 0.00 | 0.11 | 80 | 1011.0 |
| 20260506043031 | 37 | 0 | 0.0 | 0.0 | 0.00 | 0.00 | 0.11 | 79 | 1010.1 |
| 20260506041534 | 38 | 0 | 0.0 | 0.0 | 0.00 | 0.00 | 0.11 | 75 | 1010.2 |
| 20260506040030 | 38 | 0 | 0.0 | 0.0 | 0.00 | 0.00 | 0.11 | 76 | 1009.8 |
| 20260506034528 | 38 | 0 | 0.0 | 0.0 | 0.00 | 0.00 | 0.11 | 76 | 1009.7 |
| 20260506033025 | 39 | 0 | 0.0 | 0.0 | 0.00 | 0.00 | 0.11 | 75 | 1009.7 |
| 20260506031529 | 39 | 0 | 0.0 | 0.0 | 0.00 | 0.00 | 0.11 | 75 | 1009.0 |
| 20260506030024 | 39 | 0 | 0.0 | 0.0 | 0.00 | 0.00 | 0.11 | 74 | 1009.2 |
| 20260506024536 | 40 | 0 | 0.0 | 0.0 | 0.00 | 0.00 | 0.11 | 72 | 1009.0 |
| 20260506023024 | 40 | 0 | 0.0 | 0.0 | 0.00 | 0.00 | 0.11 | 70 | 1008.9 |
| 20260506021522 | 41 | 0 | 0.0 | 0.0 | 0.00 | 0.00 | 0.11 | 69 | 1008.2 |
| 20260506020024 | 41 | 0 | 0.0 | 0.0 | 0.00 | 0.00 | 0.11 | 69 | 1008.0 |